User: anonymous   Login
Location: Aurora Center
(43.5271°N, 98.5894°W)
Time: 03:52:49
(UTC-05:00)
Language:

A-11 Canister half - Orbit

View from above orbital plane
View from above orbital plane
View from above satellite
View from above satellite

Ground track
Ground track

The orbit data is extracted from the following two-line orbital elements,

1 00053U 60009E   24196.88808138  .00000011  00000-0  93763-3 0  9992
2 00053  47.2792 348.6247 0100472 159.4999 200.9863 12.17340412849874
Epoch (UTC): 14 July 2024 21:18:50
Eccentricity: 0.0100472
inclination: 47.2792°
perigee height: 1524 km
apogee height: 1684 km
right ascension of ascending node: 348.6247°
argument of perigee: 159.4999°
revolutions per day: 12.17340412
mean anomaly at epoch: 200.9863°
orbit number at epoch: 84987

The dashed part of the orbit path shows where the satellite is in the earth's shadow,  

DLR